Weather History for KCAV - July, 2013

Change the Weather History Date:

Wednesday, July 3, 2013

  Actual Average Record
Temperature  
Mean Temperature 70 °F -  
Max Temperature 82 °F 82 °F 98 °F (1974)
Min Temperature 59 °F 60 °F 45 °F (1967)
Cooling Degree Days 6    
Growing Degree Days 20 (Base 50)    
Moisture  
Dew Point 55 °F    
Average Humidity 59    
Maximum Humidity 94    
Minimum Humidity 35    
Precipitation  
Precipitation 0.00 in - - ()
Sea Level Pressure  
Sea Level Pressure 30.04 in    
Wind  
Wind Speed 7 mph (SE)    
Max Wind Speed 13 mph    
Max Gust Speed 14 mph    
Visibility 10 miles    
Events      
Averages and records for this station are not official NWS values.
T = Trace of Precipitation, MM = Missing Value Source: NWS Daily Summary

Daily Weather History Graph

Daily Weather History Graph

Search for Another Location

Airport or City:

Trip Planner

Search our weather history database for the weather conditions in past years. The results will help you decide how hot, cold, wet, or windy it might be!

Date:

Astronomy

Jul. 03, 2013 Rise Set
Actual Time 5:41 AM CDT 8:56 PM CDT
Civil Twilight 5:07 AM CDT 9:31 PM CDT
Nautical Twilight 4:22 AM CDT 10:16 PM CDT
Astronomical Twilight 3:27 AM CDT 11:10 PM CDT
Moon 2:23 AM CDT 5:05 PM CDT
Length of Visible Light 16h 24m
Length of Day
15h 14m
Waning Crescent, 18% of the Moon is Illuminated
Jul 3
Waning Crescent
Jul 8
New
Jul 15
First Quarter
Jul 22
Full
Jul 29
Last Quarter

Hourly Weather History & Observations

Time (CDT) Temp. Heat Index Dew Point Humidity Pressure Visibility Wind Dir Wind Speed Gust Speed Precip Events Conditions
12:15 AM 62.6 °F - 50.0 °F 63% 30.07 in 10.0 mi ENE 6.9 mph - N/A   Clear
12:35 AM 60.8 °F - 51.8 °F 72% 30.07 in 10.0 mi ENE 6.9 mph - N/A   Clear
12:55 AM 62.6 °F - 51.8 °F 68% 30.07 in 10.0 mi ENE 6.9 mph - N/A   Clear
1:15 AM 62.6 °F - 51.8 °F 68% 30.07 in 10.0 mi East 8.1 mph - N/A   Clear
1:35 AM 62.6 °F - 51.8 °F 68% 30.07 in 10.0 mi ENE 9.2 mph - N/A   Clear
1:55 AM 60.8 °F - 53.6 °F 77% 30.06 in 10.0 mi East 8.1 mph - N/A   Clear
2:15 AM 60.8 °F - 53.6 °F 77% 30.06 in 10.0 mi East 8.1 mph - N/A   Clear
2:35 AM 60.8 °F - 53.6 °F 77% 30.06 in 10.0 mi East 8.1 mph - N/A   Clear
2:55 AM 60.8 °F - 55.4 °F 82% 30.05 in 10.0 mi ESE 6.9 mph - N/A   Clear
3:15 AM 62.6 °F - 57.2 °F 82% 30.05 in 10.0 mi ESE 8.1 mph - N/A   Clear
3:35 AM 62.6 °F - 57.2 °F 82% 30.05 in 10.0 mi ESE 6.9 mph - N/A   Clear
3:55 AM 62.6 °F - 57.2 °F 82% 30.05 in 10.0 mi ESE 8.1 mph - N/A   Clear
4:15 AM 62.6 °F - 57.2 °F 82% 30.05 in 10.0 mi SE 6.9 mph - N/A   Clear
4:35 AM 60.8 °F - 57.2 °F 88% 30.05 in 10.0 mi SE 6.9 mph - N/A   Clear
4:55 AM 60.8 °F - 57.2 °F 88% 30.05 in 10.0 mi ESE 6.9 mph - N/A   Clear
5:15 AM 60.8 °F - 57.2 °F 88% 30.05 in 10.0 mi ESE 5.8 mph - N/A   Clear
5:35 AM 60.8 °F - 57.2 °F 88% 30.05 in 9.0 mi ESE 5.8 mph - N/A   Clear
5:55 AM 60.8 °F - 57.2 °F 88% 30.06 in 8.0 mi Calm Calm - N/A   Clear
6:15 AM 59.0 °F - 57.2 °F 94% 30.06 in 8.0 mi Calm Calm - N/A   Clear
6:35 AM 60.8 °F - 57.2 °F 88% 30.07 in 7.0 mi Calm Calm - N/A   Clear
6:55 AM 62.6 °F - 59.0 °F 88% 30.07 in 7.0 mi SE 4.6 mph - N/A   Clear
7:15 AM 64.4 °F - 59.0 °F 83% 30.07 in 8.0 mi SE 5.8 mph - N/A   Clear
7:35 AM 64.4 °F - 59.0 °F 83% 30.08 in 9.0 mi SE 8.1 mph - N/A   Clear
7:55 AM 66.2 °F - 57.2 °F 73% 30.08 in 10.0 mi SE 8.1 mph - N/A   Clear
8:15 AM 68.0 °F - 57.2 °F 68% 30.08 in 10.0 mi SSE 8.1 mph - N/A   Clear
8:35 AM 69.8 °F - 57.2 °F 64% 30.09 in 10.0 mi SSE 6.9 mph - N/A   Clear
8:55 AM 69.8 °F - 59.0 °F 68% 30.09 in 10.0 mi SE 6.9 mph - N/A   Clear
9:15 AM 69.8 °F - 59.0 °F 68% 30.09 in 10.0 mi SE 6.9 mph - N/A   Clear
9:35 AM 71.6 °F - 59.0 °F 64% 30.08 in 10.0 mi SE 5.8 mph - N/A   Clear
9:55 AM 73.4 °F - 59.0 °F 61% 30.08 in 10.0 mi SSE 6.9 mph - N/A   Clear
10:15 AM 73.4 °F - 57.2 °F 57% 30.08 in 10.0 mi SSE 6.9 mph - N/A   Clear
10:35 AM 73.4 °F - 59.0 °F 61% 30.08 in 10.0 mi South 5.8 mph - N/A   Clear
10:55 AM 75.2 °F - 59.0 °F 57% 30.07 in 10.0 mi Variable 5.8 mph - N/A   Clear
11:15 AM 77.0 °F - 59.0 °F 54% 30.07 in 10.0 mi East 6.9 mph - N/A   Clear
11:35 AM 77.0 °F - 57.2 °F 50% 30.07 in 10.0 mi SE 6.9 mph - N/A   Clear
11:55 AM 78.8 °F - 59.0 °F 51% 30.06 in 10.0 mi Variable 6.9 mph - N/A   Clear
12:15 PM 77.0 °F - 57.2 °F 50% 30.06 in 10.0 mi South 5.8 mph - N/A   Partly Cloudy
12:35 PM 78.8 °F - 53.6 °F 42% 30.06 in 10.0 mi Variable 5.8 mph - N/A   Mostly Cloudy
12:55 PM 78.8 °F - 55.4 °F 44% 30.05 in 10.0 mi South 9.2 mph - N/A   Scattered Clouds
1:15 PM 78.8 °F - 53.6 °F 42% 30.05 in 10.0 mi Variable 4.6 mph 11.5 mph N/A   Clear
1:35 PM 78.8 °F - 53.6 °F 42% 30.04 in 10.0 mi Variable 4.6 mph 13.8 mph N/A   Mostly Cloudy
1:55 PM 80.6 °F 80.3 °F 53.6 °F 39% 30.04 in 10.0 mi SSE 10.4 mph - N/A   Partly Cloudy
2:15 PM 80.6 °F 80.3 °F 53.6 °F 39% 30.03 in 10.0 mi South 9.2 mph - N/A   Clear
2:35 PM 80.6 °F 80.3 °F 53.6 °F 39% 30.03 in 10.0 mi South 9.2 mph - N/A   Clear
2:55 PM 80.6 °F - 51.8 °F 37% 30.02 in 10.0 mi Calm Calm - N/A   Clear
3:15 PM 80.6 °F - 51.8 °F 37% 30.02 in 10.0 mi SSE 6.9 mph - N/A   Clear
3:35 PM 80.6 °F 80.3 °F 53.6 °F 39% 30.02 in 10.0 mi SSE 8.1 mph - N/A   Scattered Clouds
3:55 PM 80.6 °F 80.3 °F 53.6 °F 39% 30.01 in 10.0 mi SE 9.2 mph - N/A   Partly Cloudy
4:15 PM 82.4 °F - 51.8 °F 35% 30.01 in 10.0 mi Variable 6.9 mph - N/A   Partly Cloudy
4:35 PM 80.6 °F - 51.8 °F 37% 30.00 in 10.0 mi SE 5.8 mph 12.7 mph N/A   Clear
4:55 PM 80.6 °F - 51.8 °F 37% 29.99 in 10.0 mi Variable 4.6 mph - N/A   Scattered Clouds
5:15 PM 80.6 °F 80.3 °F 53.6 °F 39% 29.99 in 9.0 mi SE 4.6 mph - N/A   Scattered Clouds
5:35 PM 82.4 °F - 51.8 °F 35% 29.99 in 10.0 mi Variable 6.9 mph - N/A   Partly Cloudy
5:55 PM 82.4 °F - 51.8 °F 35% 29.98 in 10.0 mi Variable 5.8 mph - N/A   Scattered Clouds
6:15 PM 80.6 °F - 51.8 °F 37% 29.98 in 10.0 mi South 10.4 mph - N/A   Clear
6:35 PM 80.6 °F - 51.8 °F 37% 29.98 in 10.0 mi SSE 11.5 mph - N/A   Clear
6:55 PM 80.6 °F - 51.8 °F 37% 29.98 in 10.0 mi SSE 10.4 mph - N/A   Clear
7:15 PM 78.8 °F - 53.6 °F 42% 29.98 in 10.0 mi SE 10.4 mph - N/A   Clear
7:35 PM 78.8 °F - 51.8 °F 39% 29.98 in 10.0 mi SSE 9.2 mph - N/A   Mostly Cloudy
7:55 PM 78.8 °F - 51.8 °F 39% 29.98 in 10.0 mi SSE 11.5 mph - N/A   Mostly Cloudy
8:15 PM 77.0 °F - 51.8 °F 41% 29.98 in 10.0 mi SSE 12.7 mph - N/A   Mostly Cloudy
8:35 PM 75.2 °F - 51.8 °F 44% 29.98 in 10.0 mi SSE 11.5 mph - N/A   Partly Cloudy
8:55 PM 73.4 °F - 55.4 °F 53% 29.99 in 10.0 mi SSE 9.2 mph - N/A   Partly Cloudy
9:15 PM 71.6 °F - 55.4 °F 57% 29.99 in 10.0 mi SSE 9.2 mph - N/A   Clear
9:35 PM 71.6 °F - 55.4 °F 57% 29.99 in 10.0 mi SSE 9.2 mph - N/A   Clear
9:55 PM 71.6 °F - 55.4 °F 57% 30.00 in 9.0 mi SSE 8.1 mph - N/A   Clear
10:15 PM 69.8 °F - 55.4 °F 60% 30.01 in 10.0 mi SSE 8.1 mph - N/A   Clear
10:35 PM 69.8 °F - 55.4 °F 60% 30.02 in 10.0 mi South 8.1 mph - N/A   Clear
10:55 PM 68.0 °F - 53.6 °F 60% 30.02 in 10.0 mi South 6.9 mph - N/A   Clear
11:15 PM 68.0 °F - 53.6 °F 60% 30.02 in 10.0 mi South 9.2 mph - N/A   Partly Cloudy
11:35 PM 68.0 °F - 55.4 °F 64% 30.01 in 10.0 mi SSE 9.2 mph - N/A   Clear
11:55 PM 68.0 °F - 55.4 °F 64% 30.01 in 10.0 mi South 9.2 mph - N/A   Clear